Tracking 30743 objects as of 21-Jun-2025
HD Live streaming from Space Station
objects crossing your sky now

TITAN 3C TRANSTAGE DEB

Track TITAN 3C TRANSTAGE DEB now!
10-day predictions


NORAD ID: 2799
Int'l Code: 1965-082KX
Perigee: 635.1 km
Apogee: 682.6 km
Inclination: 32.1 °
Period: 97.8 minutes
Semi major axis: 7029 km
RCS: 0.0572 m2 (small)
Launch date: October 15, 1965
Source: United States (US)
Launch site: AIR FORCE EASTERN TEST RANGE (AFETR)

Note: This is SATELLITE DEBRIS
Your satellite tracking list
Your tracking list is empty




NASA's NSSDC Master Catalog

Two Line Element Set (TLE):
1 02799U 65082KX  25169.28249966  .00001228  00000-0  17960-3 0  9996
2 02799  32.0568  16.7038 0033748 168.9222   0.4101 14.72937592102438
Source of the keplerian elements: AFSPC